This is the latest recevied weather packets stored in our database for station/object KC4JIR. If no packets are shown the sender has not sent any weather packets the latest 10 day(s).
| Time | Temp. | Humidity | Pressure | Rain* | Wind** | Luminosity | Snow |
|---|---|---|---|---|---|---|---|
| 1778168403 | 22.22° C | 99% | 1009.5 hPa | 0 mm | - | 165 W/m² | - |
| 1778168099 | 22.22° C | 99% | 1009.3 hPa | 0 mm | - | 85 W/m² | - |
| 1778167795 | 21.67° C | 99% | 1009.3 hPa | 0 mm | - | 91 W/m² | - |
| 1778167491 | 21.67° C | 99% | 1009.3 hPa | 0 mm | - | 29 W/m² | - |
| 1778167188 | 21.67° C | 99% | 1009.3 hPa | 0 mm | - | 45 W/m² | - |
| 1778166884 | 21.67° C | 99% | 1009.6 hPa | 0 mm | - | 49 W/m² | - |
| 1778166581 | 21.67° C | 99% | 1009.2 hPa | 0 mm | - | 61 W/m² | - |
| 1778166278 | 21.67° C | 99% | 1009.1 hPa | 0 mm | - | 55 W/m² | - |
| 1778165974 | 21.67° C | 99% | 1009.2 hPa | 0 mm | - | 32 W/m² | - |
| 1778165670 | 21.67° C | 99% | 1009.3 hPa | 0 mm | - | 21 W/m² | - |
| 1778165367 | 21.67° C | 99% | 1009.2 hPa | 0 mm | - | 38 W/m² | - |
| 1778165064 | 21.67° C | 99% | 1009.5 hPa | 0 mm | - | 42 W/m² | - |
| 1778164761 | 21.67° C | 99% | 1009.3 hPa | 0 mm | - | 53 W/m² | - |
| 1778164459 | 21.67° C | 99% | 1009 hPa | 0 mm | - | 107 W/m² | - |
| 1778164155 | 21.11° C | 99% | 1008.7 hPa | 0 mm | - | 39 W/m² | - |
| 1778163851 | 21.11° C | 99% | 1008.8 hPa | 0 mm | - | 46 W/m² | - |
| 1778163548 | 21.11° C | 99% | 1009 hPa | 0 mm | - | 73 W/m² | - |
| 1778163244 | 21.11° C | 99% | 1008.8 hPa | 0 mm | - | 164 W/m² | - |
| 1778162941 | 21.11° C | 99% | 1008.9 hPa | 0 mm | - | 135 W/m² | - |
| 1778162638 | 21.11° C | 99% | 1008.8 hPa | 0 mm | - | 116 W/m² | - |
| 1778162336 | 21.11° C | 99% | 1008.7 hPa | 0 mm | - | 93 W/m² | - |
| 1778162032 | 21.11° C | 99% | 1008.9 hPa | 0 mm | - | 66 W/m² | - |
| 1778161730 | 20.56° C | 99% | 1008.6 hPa | 0 mm | - | 53 W/m² | - |
| 1778161425 | 20.56° C | 99% | 1008.5 hPa | 0 mm | - | 61 W/m² | - |
| 1778161122 | 20.56° C | 99% | 1008.6 hPa | 0 mm | - | 52 W/m² | - |
* Rain latest hour (hover to see other rain measurements)
** Current wind speed in m/s (hover to see current wind gust speed)